Location: Newark
(12.4436°N, 0.6167°W)
Time: 11:45:23
(UTC+00:00)

deb Explorer IX - Pass Details

Date: 15 December 2019
Orbit: 548 x 1101 km, 38.8° (Epoch: 19 January)

Event Time Altitude Azimuth Distance (km) Brightness Sun altitude
Rises 12:36:31 0° 253° (WSW) 2,737 ? 53.0°
Reaches altitude 10° 12:38:54 10° 265° (W) 1,882 ? 52.9°
Maximum altitude 12:42:41 30° 327° (NNW) 1,117 ? 52.6°
Drops below altitude 10° 12:46:52 10° 28° (NNE) 2,096 ? 52.3°
Sets 12:49:41 0° 39° (NE) 3,111 ? 52.1°
